sat.trackr.live / text

‹ back to catalog

SHIYAN-27 OBJECT D

NORAD 63602 · 2025-078D

PAYLOAD ACTIVE UNKNOWN

§ Identity

Operator
Country
PRC
Launch date
2025-04-18
Launch site
TAISC
Launch vehicle
Mass (kg)
RCS (m²)

External: N2YO · Heavens-Above · Gunter

§ Orbital elements

Epoch: 2026-05-25T03:33:16.714368Z

Period
106.10 min
Inclination
99.6929°
Eccentricity
0.0001188
Mean motion
13.57246704 rev/d
Perigee alt
1,044.8 km
Apogee alt
1,046.6 km
Semi-major
7,423.9 km
B*
4.9880e-5
RAAN
152.7296°
Arg perigee
90.5133°
Mean anomaly
269.6141°
Rev number
5,440

§ Raw data

SHIYAN-27 OBJECT D1 63602U 25078D   26145.14811012 -.00000009  00000+0  49880-4 0  99972 63602  99.6929 152.7296 0001188  90.5133 269.6141 13.57246704 54405

JSON: /api/v1/satellites/63602 · /tle

For live sub-satellite position, see the globe view (requires WebGL).

§ Visibility from observer

Set your observer location to see the next 7 days of passes ≥ 10°. The values pass through the URL so the page stays shareable.

No JS? Fill the form by hand. The geolocation button needs JavaScript.